Weather History for Iron Mountain, MI

Change the Weather History Date:

Friday, January 17, 2014

  Actual Average Record
Temperature  
Mean Temperature 14 °F -  
Max Temperature 19 °F 23 °F 46 °F (1973)
Min Temperature 10 °F 2 °F -31 °F (1982)
Degree Days  
Heating Degree Days 50    
Moisture  
Dew Point 11 °F    
Average Humidity 78    
Maximum Humidity 86    
Minimum Humidity 68    
Precipitation  
Precipitation 0.00 in - - ()
Sea Level Pressure  
Sea Level Pressure 29.75 in    
Wind  
Wind Speed 11 mph (NNW)    
Max Wind Speed 17 mph    
Max Gust Speed 23 mph    
Visibility 7 miles    
Events Snow    
Averages and records for this station are not official NWS values.
T = Trace of Precipitation, MM = Missing Value Source: NWS Daily Summary

Daily Weather History Graph

Daily Weather History Graph

Search for Another Location

Airport:

Trip Planner

Search our weather history database for the weather conditions in past years. The results will help you decide how hot, cold, wet, or windy it might be!

Date:

Astronomy

Jan. 17, 2014 Rise Set
Actual Time 7:28 AM CST 4:37 PM CST
Civil Twilight 6:55 AM CST 5:10 PM CST
Nautical Twilight 6:18 AM CST 5:47 PM CST
Astronomical Twilight 5:42 AM CST 6:22 PM CST
Moon 6:31 PM CST (1/17) 7:49 AM CST (1/17)
Length of Visible Light 10h 14m
Length of Day
9h 08m
Full, 98% of the Moon is Illuminated
Jan 17
Full
Jan 23
Last Quarter
Jan 30
New
Feb 6
First Quarter
Feb 14
Full

Hourly Weather History & Observations

Time (CST) Temp. Windchill Dew Point Humidity Pressure Visibility Wind Dir Wind Speed Gust Speed Precip Events Conditions
12:54 AM 16.0 °F 6.3 °F 10.0 °F 77% 29.62 in 10.0 mi NW 6.9 mph - N/A   Overcast
1:54 AM 16.0 °F 8.8 °F 10.9 °F 81% 29.63 in 10.0 mi NW 4.6 mph - N/A   Overcast
2:54 AM 17.1 °F 8.7 °F 12.9 °F 84% 29.64 in 10.0 mi NW 5.8 mph - N/A   Overcast
3:54 AM 19.9 °F 9.3 °F 15.1 °F 81% 29.65 in 8.0 mi NNW 9.2 mph - 0.00 in Snow Light Snow
4:05 AM 19.4 °F 6.6 °F 15.8 °F 86% 29.59 in 9.0 mi NNW 12.7 mph - 0.00 in   Overcast
4:14 AM 19.4 °F 7.2 °F 15.8 °F 86% 29.59 in 10.0 mi NNW 11.5 mph - 0.00 in   Overcast
4:54 AM 19.9 °F 7.9 °F 15.1 °F 81% 29.67 in 2.0 mi NNW 11.5 mph - 0.00 in Snow Light Snow
5:00 AM 19.4 °F 6.0 °F 15.8 °F 86% 29.61 in 1.8 mi NNW 13.8 mph - 0.00 in Snow Light Snow
5:20 AM 19.4 °F 6.0 °F 15.8 °F 86% 29.62 in 3.0 mi NW 13.8 mph - 0.00 in Snow Light Snow
5:29 AM 19.4 °F 6.0 °F 15.8 °F 86% 29.62 in 4.0 mi NNW 13.8 mph - 0.00 in Snow Light Snow
5:44 AM 19.4 °F 4.5 °F 15.8 °F 86% 29.62 in 2.0 mi NNW 17.3 mph 23.0 mph 0.00 in Snow Light Snow
5:52 AM 19.4 °F 6.0 °F 15.8 °F 86% 29.62 in 1.8 mi NW 13.8 mph - 0.00 in Snow Light Snow
5:54 AM 19.0 °F 5.6 °F 15.1 °F 85% 29.69 in 2.0 mi NNW 13.8 mph - 0.00 in Snow Light Snow
5:59 AM 19.4 °F 5.5 °F 14.0 °F 80% 29.63 in 3.0 mi NNW 15.0 mph - 0.00 in Snow Light Snow
6:16 AM 19.4 °F 6.6 °F 15.8 °F 86% 29.63 in 2.0 mi NNW 12.7 mph - 0.00 in Snow Light Snow
6:54 AM 19.0 °F 5.6 °F 14.0 °F 81% 29.71 in 2.5 mi NNW 13.8 mph - 0.00 in Snow Light Snow
7:20 AM 19.4 °F 6.0 °F 14.0 °F 80% 29.66 in 1.8 mi NNW 13.8 mph - 0.00 in Snow Light Snow
7:54 AM 18.0 °F 4.2 °F 14.0 °F 84% 29.74 in 1.0 mi NNW 13.8 mph - 0.00 in Snow Light Snow
8:54 AM 18.0 °F 4.8 °F 12.9 °F 81% 29.78 in 1.2 mi NNW 12.7 mph 21.9 mph 0.00 in Snow Light Snow
9:49 AM 19.4 °F 7.9 °F 14.0 °F 80% 29.73 in 2.5 mi NNW 10.4 mph - 0.00 in Snow Light Snow
9:54 AM 19.0 °F 6.8 °F 14.0 °F 81% 29.80 in 3.0 mi NW 11.5 mph - 0.00 in Snow Light Snow
10:08 AM 19.4 °F 6.6 °F 12.2 °F 74% 29.74 in 2.5 mi NW 12.7 mph - 0.00 in Snow Light Snow
10:20 AM 19.4 °F 6.0 °F 12.2 °F 74% 29.73 in 3.0 mi NNW 13.8 mph - 0.00 in Snow Light Snow
10:54 AM 19.9 °F 6.7 °F 12.9 °F 74% 29.81 in 9.0 mi NW 13.8 mph - 0.00 in   Overcast
11:54 AM 19.9 °F 6.7 °F 12.9 °F 74% 29.82 in 9.0 mi NW 13.8 mph - 0.00 in   Overcast
12:54 PM 19.9 °F 6.2 °F 12.0 °F 71% 29.83 in 10.0 mi NNW 15.0 mph - 0.00 in   Overcast
1:54 PM 19.0 °F 5.6 °F 10.0 °F 68% 29.84 in 10.0 mi NNW 13.8 mph - 0.00 in   Overcast
2:11 PM 19.4 °F 6.0 °F 10.4 °F 68% 29.77 in 10.0 mi NNW 13.8 mph - N/A   Overcast
2:22 PM 19.4 °F 6.0 °F 10.4 °F 68% 29.78 in 10.0 mi NW 13.8 mph - N/A   Overcast
2:54 PM 17.1 °F 1.5 °F 9.0 °F 71% 29.86 in 10.0 mi NNW 17.3 mph - N/A   Overcast
3:10 PM 17.6 °F 3.7 °F 8.6 °F 68% 29.79 in 10.0 mi NNW 13.8 mph - N/A   Overcast
3:54 PM 15.1 °F 0.5 °F 7.0 °F 70% 29.87 in 10.0 mi NNW 13.8 mph - N/A   Partly Cloudy
4:12 PM 15.8 °F 5.1 °F 6.8 °F 68% 29.81 in 10.0 mi NNW 8.1 mph - N/A   Mostly Cloudy
4:54 PM 14.0 °F 3.9 °F 7.0 °F 74% 29.89 in 10.0 mi NW 6.9 mph - N/A   Overcast
5:54 PM 12.9 °F -0.9 °F 6.1 °F 74% 29.91 in 10.0 mi NNW 11.5 mph - 0.00 in   Overcast
6:54 PM 12.0 °F -2.0 °F 5.0 °F 73% 29.92 in 10.0 mi NW 11.5 mph - 0.00 in   Overcast
7:54 PM 10.9 °F -0.8 °F 3.9 °F 73% 29.92 in 10.0 mi NNW 8.1 mph - N/A   Overcast
8:54 PM 10.9 °F 0.2 °F 3.9 °F 73% 29.91 in 10.0 mi NNW 6.9 mph - N/A   Overcast
9:54 PM 10.9 °F -0.8 °F 5.0 °F 77% 29.91 in 10.0 mi NNW 8.1 mph - N/A   Overcast
10:54 PM 10.9 °F 2.9 °F 5.0 °F 77% 29.90 in 10.0 mi North 4.6 mph - N/A   Overcast
11:54 PM 10.9 °F 2.9 °F 5.0 °F 77% 29.88 in 10.0 mi NNW 4.6 mph - N/A   Overcast